contact:dominique.lefevre@mio.osupytheas.fr, maurice.libes@osupytheas.fr, didier.mallarino@osupytheas.fr
Project:EMSO http://www.emso-fr.org/EMSO-France
Depth: 2436.0 m
Title:EMSO Ligure Ouest : Data MII capteur MICROCAT
DateTime_Computer,Latitude,Longitude,Temperature,Conductivity,Pressure,DateTime_Instrument
DateTime_Computer,Latitude,Longitude,degC,S m-1,dbar,DateTime_Instrument
2021-08-17T00:00:27Z,42.805,6.029,13.2998,4.60014,2470.236,2021-8-17T02:01:45Z
2021-08-17T00:03:30Z,42.805,6.029,13.3000,4.60011,2470.297,2021-8-17T02:04:48Z
2021-08-17T00:06:33Z,42.805,6.029,13.3000,4.60011,2470.297,2021-8-17T02:07:51Z
2021-08-17T00:09:36Z,42.805,6.029,13.2998,4.60011,2470.297,2021-8-17T02:10:55Z
2021-08-17T00:12:39Z,42.805,6.029,13.2998,4.60011,2470.287,2021-8-17T02:13:58Z
2021-08-17T00:15:42Z,42.805,6.029,13.3004,4.60012,2470.31,2021-8-17T02:17:01Z
2021-08-17T00:18:45Z,42.805,6.029,13.3000,4.60012,2470.25,2021-8-17T02:20:04Z
2021-08-17T00:21:48Z,42.805,6.029,13.3000,4.60013,2470.287,2021-8-17T02:23:07Z
2021-08-17T00:24:51Z,42.805,6.029,13.2998,4.60013,2470.25,2021-8-17T02:26:10Z
2021-08-17T00:27:55Z,42.805,6.029,13.3001,4.60011,2470.273,2021-8-17T02:29:13Z
2021-08-17T00:30:58Z,42.805,6.029,13.2998,4.60014,2470.31,2021-8-17T02:32:16Z
2021-08-17T00:34:01Z,42.805,6.029,13.2997,4.60011,2470.297,2021-8-17T02:35:19Z
2021-08-17T00:37:04Z,42.805,6.029,13.3000,4.60014,2470.31,2021-8-17T02:38:23Z
2021-08-17T00:40:07Z,42.805,6.029,13.2996,4.60013,2470.273,2021-8-17T02:41:26Z
2021-08-17T00:43:10Z,42.805,6.029,13.3004,4.60014,2470.287,2021-8-17T02:44:29Z
2021-08-17T00:46:13Z,42.805,6.029,13.2996,4.60011,2470.287,2021-8-17T02:47:32Z
2021-08-17T00:49:16Z,42.805,6.029,13.2996,4.60011,2470.297,2021-8-17T02:50:35Z
2021-08-17T00:52:20Z,42.805,6.029,13.3001,4.60014,2470.297,2021-8-17T02:53:38Z
2021-08-17T00:55:23Z,42.805,6.029,13.3000,4.60011,2470.287,2021-8-17T02:56:41Z
2021-08-17T00:58:26Z,42.805,6.029,13.3004,4.60012,2470.297,2021-8-17T02:59:44Z
2021-08-17T01:01:29Z,42.805,6.029,13.3000,4.60011,2470.273,2021-8-17T03:02:48Z
2021-08-17T01:04:32Z,42.805,6.029,13.3002,4.60013,2470.31,2021-8-17T03:05:51Z
2021-08-17T01:07:35Z,42.805,6.029,13.2999,4.60013,2470.31,2021-8-17T03:08:54Z
2021-08-17T01:10:38Z,42.805,6.029,13.3005,4.60012,2470.273,2021-8-17T03:11:57Z
2021-08-17T01:13:41Z,42.805,6.029,13.2999,4.60011,2470.287,2021-8-17T03:15:00Z
2021-08-17T01:16:45Z,42.805,6.029,13.3000,4.60011,2470.297,2021-8-17T03:18:03Z
2021-08-17T01:19:48Z,42.805,6.029,13.3000,4.60011,2470.31,2021-8-17T03:21:06Z
2021-08-17T01:22:51Z,42.805,6.029,13.2998,4.60011,2470.273,2021-8-17T03:24:09Z
2021-08-17T01:25:54Z,42.805,6.029,13.3000,4.60012,2470.287,2021-8-17T03:27:13Z
2021-08-17T01:28:57Z,42.805,6.029,13.2998,4.60014,2470.31,2021-8-17T03:30:16Z
2021-08-17T01:32:00Z,42.805,6.029,13.3002,4.60012,2470.273,2021-8-17T03:33:19Z
2021-08-17T01:35:03Z,42.805,6.029,13.3000,4.60012,2470.31,2021-8-17T03:36:22Z
2021-08-17T01:38:06Z,42.805,6.029,13.3002,4.60014,2470.32,2021-8-17T03:39:25Z
2021-08-17T01:41:10Z,42.805,6.029,13.2998,4.60013,2470.297,2021-8-17T03:42:28Z
2021-08-17T01:44:13Z,42.805,6.029,13.3003,4.60014,2470.25,2021-8-17T03:45:31Z
2021-08-17T01:47:16Z,42.805,6.029,13.3001,4.60014,2470.287,2021-8-17T03:48:34Z
2021-08-17T01:50:19Z,42.805,6.029,13.3003,4.60014,2470.31,2021-8-17T03:51:38Z
2021-08-17T01:53:22Z,42.805,6.029,13.3000,4.60011,2470.31,2021-8-17T03:54:41Z
2021-08-17T01:56:25Z,42.805,6.029,13.3000,4.60011,2470.297,2021-8-17T03:57:44Z
2021-08-17T01:59:28Z,42.805,6.029,13.3000,4.60011,2470.31,2021-8-17T04:00:47Z
2021-08-17T02:02:31Z,42.805,6.029,13.3000,4.60013,2470.273,2021-8-17T04:03:50Z
2021-08-17T02:05:35Z,42.805,6.029,13.2996,4.60011,2470.273,2021-8-17T04:06:53Z
2021-08-17T02:08:38Z,42.805,6.029,13.3000,4.60011,2470.297,2021-8-17T04:09:56Z
2021-08-17T02:11:41Z,42.805,6.029,13.3004,4.60013,2470.287,2021-8-17T04:12:59Z
2021-08-17T02:14:44Z,42.805,6.029,13.2998,4.60012,2470.31,2021-8-17T04:16:03Z
2021-08-17T02:17:47Z,42.805,6.029,13.3000,4.60014,2470.297,2021-8-17T04:19:06Z
2021-08-17T02:20:50Z,42.805,6.029,13.2998,4.60013,2470.297,2021-8-17T04:22:09Z
2021-08-17T02:23:53Z,42.805,6.029,13.3000,4.60012,2470.287,2021-8-17T04:25:12Z
2021-08-17T02:26:56Z,42.805,6.029,13.2999,4.60011,2470.31,2021-8-17T04:28:15Z
2021-08-17T02:29:59Z,42.805,6.029,13.3000,4.60011,2470.297,2021-8-17T04:31:18Z
2021-08-17T02:33:03Z,42.805,6.029,13.3000,4.60012,2470.25,2021-8-17T04:34:21Z
2021-08-17T02:36:06Z,42.805,6.029,13.3000,4.60014,2470.25,2021-8-17T04:37:24Z
2021-08-17T02:39:09Z,42.805,6.029,13.3003,4.60012,2470.297,2021-8-17T04:40:27Z
2021-08-17T02:42:12Z,42.805,6.029,13.3002,4.60012,2470.297,2021-8-17T04:43:31Z
2021-08-17T02:45:15Z,42.805,6.029,13.3000,4.60014,2470.26,2021-8-17T04:46:34Z
2021-08-17T02:48:18Z,42.805,6.029,13.3000,4.60011,2470.287,2021-8-17T04:49:37Z
2021-08-17T02:51:21Z,42.805,6.029,13.2998,4.60013,2470.273,2021-8-17T04:52:40Z
2021-08-17T02:54:24Z,42.805,6.029,13.2999,4.60013,2470.273,2021-8-17T04:55:43Z
2021-08-17T02:57:28Z,42.805,6.029,13.3004,4.60014,2470.264,2021-8-17T04:58:46Z
2021-08-17T03:00:31Z,42.805,6.029,13.3004,4.60011,2470.297,2021-8-17T05:01:49Z
2021-08-17T03:03:34Z,42.805,6.029,13.2998,4.60014,2470.25,2021-8-17T05:04:52Z
2021-08-17T03:06:37Z,42.805,6.029,13.3000,4.60012,2470.297,2021-8-17T05:07:56Z
2021-08-17T03:09:40Z,42.805,6.029,13.3003,4.60013,2470.25,2021-8-17T05:10:59Z
2021-08-17T03:12:43Z,42.805,6.029,13.3004,4.60013,2470.273,2021-8-17T05:14:02Z
2021-08-17T03:15:46Z,42.805,6.029,13.3003,4.60012,2470.25,2021-8-17T05:17:05Z
2021-08-17T03:18:49Z,42.805,6.029,13.3001,4.60012,2470.25,2021-8-17T05:20:08Z
2021-08-17T03:21:53Z,42.805,6.029,13.3000,4.60011,2470.273,2021-8-17T05:23:11Z
2021-08-17T03:24:56Z,42.805,6.029,13.2996,4.60012,2470.24,2021-8-17T05:26:14Z
2021-08-17T03:27:59Z,42.805,6.029,13.3002,4.60012,2470.273,2021-8-17T05:29:17Z
2021-08-17T03:31:02Z,42.805,6.029,13.3001,4.60013,2470.25,2021-8-17T05:32:21Z
2021-08-17T03:34:05Z,42.805,6.029,13.3001,4.60011,2470.25,2021-8-17T05:35:24Z
2021-08-17T03:37:08Z,42.805,6.029,13.2998,4.60014,2470.297,2021-8-17T05:38:27Z
2021-08-17T03:40:11Z,42.805,6.029,13.3000,4.60013,2470.264,2021-8-17T05:41:30Z
2021-08-17T03:43:14Z,42.805,6.029,13.2999,4.60012,2470.287,2021-8-17T05:44:33Z
2021-08-17T03:46:18Z,42.805,6.029,13.3006,4.60014,2470.264,2021-8-17T05:47:36Z
2021-08-17T03:49:21Z,42.805,6.029,13.3000,4.60014,2470.25,2021-8-17T05:50:39Z
2021-08-17T03:52:24Z,42.805,6.029,13.3005,4.60011,2470.25,2021-8-17T05:53:42Z
2021-08-17T03:55:27Z,42.805,6.029,13.3003,4.60014,2470.25,2021-8-17T05:56:46Z
2021-08-17T03:58:30Z,42.805,6.029,13.2999,4.60012,2470.273,2021-8-17T05:59:49Z
2021-08-17T04:01:33Z,42.805,6.029,13.2999,4.60011,2470.25,2021-8-17T06:02:52Z
2021-08-17T04:04:36Z,42.805,6.029,13.3004,4.60011,2470.25,2021-8-17T06:05:55Z
2021-08-17T04:07:39Z,42.805,6.029,13.3000,4.60013,2470.287,2021-8-17T06:08:58Z
2021-08-17T04:10:43Z,42.805,6.029,13.3002,4.60013,2470.273,2021-8-17T06:12:01Z
2021-08-17T04:13:46Z,42.805,6.029,13.3002,4.60014,2470.25,2021-8-17T06:15:04Z
2021-08-17T04:16:49Z,42.805,6.029,13.3001,4.60011,2470.287,2021-8-17T06:18:07Z
2021-08-17T04:19:52Z,42.805,6.029,13.2999,4.60014,2470.25,2021-8-17T06:21:11Z
2021-08-17T04:22:55Z,42.805,6.029,13.3000,4.60013,2470.25,2021-8-17T06:24:14Z
2021-08-17T04:25:58Z,42.805,6.029,13.3000,4.60011,2470.227,2021-8-17T06:27:17Z
2021-08-17T04:29:01Z,42.805,6.029,13.3007,4.60014,2470.24,2021-8-17T06:30:20Z
2021-08-17T04:32:04Z,42.805,6.029,13.3000,4.60014,2470.287,2021-8-17T06:33:23Z
2021-08-17T04:35:08Z,42.805,6.029,13.3003,4.60014,2470.287,2021-8-17T06:36:26Z
2021-08-17T04:38:11Z,42.805,6.029,13.3003,4.60014,2470.24,2021-8-17T06:39:29Z
2021-08-17T04:41:14Z,42.805,6.029,13.3000,4.60013,2470.264,2021-8-17T06:42:32Z
2021-08-17T04:44:17Z,42.805,6.029,13.3000,4.60011,2470.273,2021-8-17T06:45:36Z
2021-08-17T04:47:20Z,42.805,6.029,13.3002,4.60014,2470.25,2021-8-17T06:48:39Z
2021-08-17T04:50:23Z,42.805,6.029,13.2999,4.60011,2470.25,2021-8-17T06:51:42Z
2021-08-17T04:53:26Z,42.805,6.029,13.3004,4.60013,2470.24,2021-8-17T06:54:45Z
2021-08-17T04:56:29Z,42.805,6.029,13.3001,4.60014,2470.264,2021-8-17T06:57:48Z
2021-08-17T04:59:33Z,42.805,6.029,13.3002,4.60014,2470.25,2021-8-17T07:00:51Z
2021-08-17T05:02:36Z,42.805,6.029,13.3000,4.60013,2470.24,2021-8-17T07:03:54Z
2021-08-17T05:05:39Z,42.805,6.029,13.3003,4.60012,2470.203,2021-8-17T07:06:57Z
2021-08-17T05:08:42Z,42.805,6.029,13.2999,4.60015,2470.227,2021-8-17T07:10:01Z
2021-08-17T05:11:45Z,42.805,6.029,13.3002,4.60013,2470.264,2021-8-17T07:13:04Z
2021-08-17T05:14:48Z,42.805,6.029,13.3003,4.60013,2470.24,2021-8-17T07:16:07Z
2021-08-17T05:17:51Z,42.805,6.029,13.3000,4.60016,2470.227,2021-8-17T07:19:10Z
2021-08-17T05:20:54Z,42.805,6.029,13.3006,4.60013,2470.25,2021-8-17T07:22:13Z
2021-08-17T05:23:57Z,42.805,6.029,13.2998,4.60014,2470.227,2021-8-17T07:25:16Z
2021-08-17T05:27:01Z,42.805,6.029,13.3004,4.60016,2470.287,2021-8-17T07:28:19Z
2021-08-17T05:30:04Z,42.805,6.029,13.3001,4.60018,2470.227,2021-8-17T07:31:22Z
2021-08-17T05:33:07Z,42.805,6.029,13.3002,4.60013,2470.25,2021-8-17T07:34:25Z
2021-08-17T05:36:10Z,42.805,6.029,13.3000,4.60012,2470.24,2021-8-17T07:37:29Z
2021-08-17T05:39:13Z,42.805,6.029,13.3000,4.60013,2470.227,2021-8-17T07:40:32Z
2021-08-17T05:42:16Z,42.805,6.029,13.3004,4.60014,2470.25,2021-8-17T07:43:35Z
2021-08-17T05:45:19Z,42.805,6.029,13.3003,4.60013,2470.227,2021-8-17T07:46:38Z
2021-08-17T05:48:22Z,42.805,6.029,13.3007,4.60013,2470.264,2021-8-17T07:49:41Z
2021-08-17T05:51:26Z,42.805,6.029,13.3006,4.60014,2470.264,2021-8-17T07:52:44Z
2021-08-17T05:54:29Z,42.805,6.029,13.3005,4.60014,2470.264,2021-8-17T07:55:47Z
2021-08-17T05:57:32Z,42.805,6.029,13.3005,4.60014,2470.203,2021-8-17T07:58:50Z
2021-08-17T06:00:35Z,42.805,6.029,13.3005,4.60012,2470.227,2021-8-17T08:01:54Z
2021-08-17T06:03:38Z,42.805,6.029,13.3000,4.60011,2470.227,2021-8-17T08:04:57Z
2021-08-17T06:06:41Z,42.805,6.029,13.3004,4.60011,2470.24,2021-8-17T08:08:00Z
2021-08-17T06:09:44Z,42.805,6.029,13.3001,4.60014,2470.25,2021-8-17T08:11:03Z
2021-08-17T06:12:47Z,42.805,6.029,13.3005,4.60011,2470.24,2021-8-17T08:14:06Z
2021-08-17T06:15:51Z,42.805,6.029,13.3004,4.60013,2470.227,2021-8-17T08:17:09Z
2021-08-17T06:18:54Z,42.805,6.029,13.3008,4.60014,2470.25,2021-8-17T08:20:12Z
2021-08-17T06:21:57Z,42.805,6.029,13.3002,4.60012,2470.24,2021-8-17T08:23:15Z
2021-08-17T06:25:00Z,42.805,6.029,13.3004,4.60014,2470.264,2021-8-17T08:26:19Z
2021-08-17T06:28:03Z,42.805,6.029,13.3002,4.60015,2470.227,2021-8-17T08:29:22Z
2021-08-17T06:31:06Z,42.805,6.029,13.3004,4.60016,2470.227,2021-8-17T08:32:25Z
2021-08-17T06:34:09Z,42.805,6.029,13.3001,4.60013,2470.24,2021-8-17T08:35:28Z
2021-08-17T06:37:12Z,42.805,6.029,13.3001,4.60013,2470.227,2021-8-17T08:38:31Z
2021-08-17T06:40:16Z,42.805,6.029,13.3004,4.60016,2470.227,2021-8-17T08:41:34Z
2021-08-17T06:43:19Z,42.805,6.029,13.3004,4.60018,2470.203,2021-8-17T08:44:37Z
2021-08-17T06:46:22Z,42.805,6.029,13.3006,4.60013,2470.227,2021-8-17T08:47:40Z
2021-08-17T06:49:25Z,42.805,6.029,13.3007,4.60013,2470.24,2021-8-17T08:50:44Z
2021-08-17T06:52:28Z,42.805,6.029,13.3004,4.60012,2470.25,2021-8-17T08:53:47Z
2021-08-17T06:55:31Z,42.805,6.029,13.3002,4.60013,2470.227,2021-8-17T08:56:50Z
2021-08-17T06:58:34Z,42.805,6.029,13.3002,4.60014,2470.217,2021-8-17T08:59:53Z
2021-08-17T07:01:37Z,42.805,6.029,13.2998,4.60016,2470.227,2021-8-17T09:02:56Z
2021-08-17T07:04:41Z,42.805,6.029,13.3000,4.60011,2470.194,2021-8-17T09:05:59Z
2021-08-17T07:07:44Z,42.805,6.029,13.3000,4.60014,2470.264,2021-8-17T09:09:02Z
2021-08-17T07:10:47Z,42.805,6.029,13.3006,4.60013,2470.24,2021-8-17T09:12:05Z
2021-08-17T07:13:50Z,42.805,6.029,13.3007,4.60013,2470.24,2021-8-17T09:15:09Z
2021-08-17T07:16:53Z,42.805,6.029,13.3004,4.60019,2470.217,2021-8-17T09:18:12Z
2021-08-17T07:19:56Z,42.805,6.029,13.3005,4.60017,2470.264,2021-8-17T09:21:15Z
2021-08-17T07:22:59Z,42.805,6.029,13.3003,4.60014,2470.203,2021-8-17T09:24:18Z
2021-08-17T07:26:02Z,42.805,6.029,13.3000,4.60014,2470.227,2021-8-17T09:27:21Z
2021-08-17T07:29:06Z,42.805,6.029,13.3003,4.60012,2470.227,2021-8-17T09:30:24Z
2021-08-17T07:32:09Z,42.805,6.029,13.3000,4.60013,2470.203,2021-8-17T09:33:27Z
2021-08-17T07:35:12Z,42.805,6.029,13.3000,4.60014,2470.194,2021-8-17T09:36:30Z
2021-08-17T07:38:15Z,42.805,6.029,13.3004,4.60015,2470.227,2021-8-17T09:39:34Z
2021-08-17T07:41:18Z,42.805,6.029,13.2999,4.60013,2470.203,2021-8-17T09:42:37Z
2021-08-17T07:44:21Z,42.805,6.029,13.2999,4.60016,2470.203,2021-8-17T09:45:40Z
2021-08-17T07:47:24Z,42.805,6.029,13.3004,4.60014,2470.203,2021-8-17T09:48:43Z
2021-08-17T07:50:27Z,42.805,6.029,13.3003,4.60019,2470.203,2021-8-17T09:51:46Z
2021-08-17T07:53:31Z,42.805,6.029,13.3000,4.60014,2470.217,2021-8-17T09:54:49Z
2021-08-17T07:56:34Z,42.805,6.029,13.2999,4.60012,2470.227,2021-8-17T09:57:52Z
2021-08-17T07:59:37Z,42.805,6.029,13.3004,4.60013,2470.203,2021-8-17T10:00:55Z
2021-08-17T08:02:40Z,42.805,6.029,13.3000,4.60011,2470.203,2021-8-17T10:03:59Z
2021-08-17T08:05:43Z,42.805,6.029,13.3002,4.60013,2470.217,2021-8-17T10:07:02Z
2021-08-17T08:08:46Z,42.805,6.029,13.3001,4.60012,2470.217,2021-8-17T10:10:05Z
2021-08-17T08:11:49Z,42.805,6.029,13.3002,4.60012,2470.194,2021-8-17T10:13:08Z
2021-08-17T08:14:52Z,42.805,6.029,13.2998,4.60015,2470.18,2021-8-17T10:16:11Z
2021-08-17T08:17:56Z,42.805,6.029,13.3003,4.60011,2470.227,2021-8-17T10:19:14Z
2021-08-17T08:20:59Z,42.805,6.029,13.3000,4.60015,2470.217,2021-8-17T10:22:17Z
2021-08-17T08:24:02Z,42.805,6.029,13.3004,4.60014,2470.203,2021-8-17T10:25:20Z
2021-08-17T08:27:05Z,42.805,6.029,13.3003,4.60013,2470.203,2021-8-17T10:28:24Z
2021-08-17T08:30:08Z,42.805,6.029,13.3001,4.60013,2470.227,2021-8-17T10:31:27Z
2021-08-17T08:33:11Z,42.805,6.029,13.3002,4.60014,2470.203,2021-8-17T10:34:30Z
2021-08-17T08:36:14Z,42.805,6.029,13.3004,4.60013,2470.171,2021-8-17T10:37:33Z
2021-08-17T08:39:17Z,42.805,6.029,13.3001,4.60013,2470.203,2021-8-17T10:40:36Z
2021-08-17T08:42:21Z,42.805,6.029,13.3001,4.60014,2470.203,2021-8-17T10:43:39Z
2021-08-17T08:45:24Z,42.805,6.029,13.3001,4.60015,2470.217,2021-8-17T10:46:42Z
2021-08-17T08:48:27Z,42.805,6.029,13.3000,4.60014,2470.203,2021-8-17T10:49:45Z
2021-08-17T08:51:30Z,42.805,6.029,13.3002,4.60012,2470.18,2021-8-17T10:52:49Z
2021-08-17T08:54:33Z,42.805,6.029,13.3003,4.60014,2470.24,2021-8-17T10:55:52Z
2021-08-17T08:57:36Z,42.805,6.029,13.3001,4.60013,2470.217,2021-8-17T10:58:55Z
2021-08-17T09:00:39Z,42.805,6.029,13.3006,4.60014,2470.217,2021-8-17T11:01:58Z
2021-08-17T09:03:42Z,42.805,6.029,13.3000,4.60019,2470.217,2021-8-17T11:05:01Z
2021-08-17T09:06:46Z,42.805,6.029,13.3002,4.60014,2470.227,2021-8-17T11:08:04Z
2021-08-17T09:09:49Z,42.805,6.029,13.3002,4.60013,2470.194,2021-8-17T11:11:07Z
2021-08-17T09:12:52Z,42.805,6.029,13.2999,4.60012,2470.203,2021-8-17T11:14:10Z
2021-08-17T09:15:55Z,42.805,6.029,13.3002,4.60016,2470.203,2021-8-17T11:17:14Z
2021-08-17T09:18:58Z,42.805,6.029,13.3001,4.60012,2470.227,2021-8-17T11:20:17Z
2021-08-17T09:22:01Z,42.805,6.029,13.3002,4.60014,2470.227,2021-8-17T11:23:20Z
2021-08-17T09:25:04Z,42.805,6.029,13.3006,4.60016,2470.203,2021-8-17T11:26:23Z
2021-08-17T09:28:07Z,42.805,6.029,13.2998,4.60013,2470.227,2021-8-17T11:29:26Z
2021-08-17T09:31:11Z,42.805,6.029,13.3004,4.60013,2470.203,2021-8-17T11:32:29Z
2021-08-17T09:34:14Z,42.805,6.029,13.3004,4.60014,2470.194,2021-8-17T11:35:32Z
2021-08-17T09:37:17Z,42.805,6.029,13.3002,4.60013,2470.203,2021-8-17T11:38:35Z
2021-08-17T09:40:20Z,42.805,6.029,13.3000,4.60014,2470.24,2021-8-17T11:41:39Z
2021-08-17T09:43:23Z,42.805,6.029,13.3005,4.60012,2470.227,2021-8-17T11:44:42Z
2021-08-17T09:46:26Z,42.805,6.029,13.3002,4.60014,2470.18,2021-8-17T11:47:45Z
2021-08-17T09:49:29Z,42.805,6.029,13.3002,4.60013,2470.203,2021-8-17T11:50:48Z
2021-08-17T09:52:32Z,42.805,6.029,13.3004,4.60014,2470.227,2021-8-17T11:53:51Z
2021-08-17T09:55:36Z,42.805,6.029,13.3002,4.60015,2470.24,2021-8-17T11:56:54Z
2021-08-17T09:58:39Z,42.805,6.029,13.3004,4.60016,2470.227,2021-8-17T11:59:57Z
2021-08-17T10:01:42Z,42.805,6.029,13.3004,4.60013,2470.227,2021-8-17T12:03:01Z
2021-08-17T10:04:45Z,42.805,6.029,13.3003,4.60014,2470.24,2021-8-17T12:06:04Z
2021-08-17T10:07:48Z,42.805,6.029,13.3001,4.60013,2470.227,2021-8-17T12:09:07Z
2021-08-17T10:10:51Z,42.805,6.029,13.3000,4.60019,2470.227,2021-8-17T12:12:10Z
2021-08-17T10:13:54Z,42.805,6.029,13.3004,4.60014,2470.227,2021-8-17T12:15:13Z
2021-08-17T10:16:57Z,42.805,6.029,13.3003,4.60014,2470.24,2021-8-17T12:18:16Z
2021-08-17T10:20:01Z,42.805,6.029,13.3007,4.60014,2470.227,2021-8-17T12:21:19Z
2021-08-17T10:23:04Z,42.805,6.029,13.3001,4.60014,2470.203,2021-8-17T12:24:22Z
2021-08-17T10:26:07Z,42.805,6.029,13.3003,4.60017,2470.25,2021-8-17T12:27:26Z
2021-08-17T10:29:10Z,42.805,6.029,13.3003,4.60014,2470.227,2021-8-17T12:30:29Z
2021-08-17T10:32:13Z,42.805,6.029,13.3002,4.60019,2470.227,2021-8-17T12:33:32Z
2021-08-17T10:35:16Z,42.805,6.029,13.3002,4.60014,2470.25,2021-8-17T12:36:35Z
2021-08-17T10:38:19Z,42.805,6.029,13.3001,4.60019,2470.273,2021-8-17T12:39:38Z
2021-08-17T10:41:22Z,42.805,6.029,13.2998,4.60014,2470.227,2021-8-17T12:42:41Z
2021-08-17T10:44:26Z,42.805,6.029,13.3005,4.60014,2470.24,2021-8-17T12:45:44Z
2021-08-17T10:47:29Z,42.805,6.029,13.3004,4.60014,2470.25,2021-8-17T12:48:47Z
2021-08-17T10:50:32Z,42.805,6.029,13.3006,4.60019,2470.264,2021-8-17T12:51:51Z
2021-08-17T10:53:35Z,42.805,6.029,13.3000,4.60013,2470.24,2021-8-17T12:54:54Z
2021-08-17T10:56:38Z,42.805,6.029,13.3000,4.60013,2470.25,2021-8-17T12:57:57Z
2021-08-17T10:59:41Z,42.805,6.029,13.3003,4.60021,2470.24,2021-8-17T13:01:00Z
2021-08-17T11:02:44Z,42.805,6.029,13.3004,4.60016,2470.273,2021-8-17T13:04:03Z
2021-08-17T11:05:48Z,42.805,6.029,13.3000,4.60014,2470.287,2021-8-17T13:07:06Z
2021-08-17T11:08:51Z,42.805,6.029,13.3000,4.60018,2470.297,2021-8-17T13:10:09Z
2021-08-17T11:11:54Z,42.805,6.029,13.3007,4.60014,2470.264,2021-8-17T13:13:12Z
2021-08-17T11:14:57Z,42.805,6.029,13.2999,4.60015,2470.25,2021-8-17T13:16:16Z
2021-08-17T11:18:00Z,42.805,6.029,13.3000,4.60014,2470.273,2021-8-17T13:19:19Z
2021-08-17T11:21:03Z,42.805,6.029,13.3002,4.60014,2470.264,2021-8-17T13:22:22Z
2021-08-17T11:24:06Z,42.805,6.029,13.3004,4.60021,2470.31,2021-8-17T13:25:25Z
2021-08-17T11:27:09Z,42.805,6.029,13.3004,4.60014,2470.273,2021-8-17T13:28:28Z
2021-08-17T11:30:13Z,42.805,6.029,13.3001,4.60018,2470.31,2021-8-17T13:31:31Z
2021-08-17T11:33:16Z,42.805,6.029,13.2998,4.60014,2470.26,2021-8-17T13:34:34Z
2021-08-17T11:36:19Z,42.805,6.029,13.3009,4.60014,2470.287,2021-8-17T13:37:37Z
2021-08-17T11:39:22Z,42.805,6.029,13.3001,4.60014,2470.273,2021-8-17T13:40:41Z
2021-08-17T11:42:25Z,42.805,6.029,13.3001,4.60016,2470.25,2021-8-17T13:43:44Z
2021-08-17T11:45:28Z,42.805,6.029,13.3000,4.60014,2470.306,2021-8-17T13:46:47Z
2021-08-17T11:48:31Z,42.805,6.029,13.3002,4.60014,2470.287,2021-8-17T13:49:50Z
2021-08-17T11:51:34Z,42.805,6.029,13.3000,4.60014,2470.25,2021-8-17T13:52:53Z
2021-08-17T11:54:38Z,42.805,6.029,13.3003,4.60014,2470.273,2021-8-17T13:55:56Z
2021-08-17T11:57:41Z,42.805,6.029,13.3000,4.60015,2470.31,2021-8-17T13:58:59Z
2021-08-17T12:00:44Z,42.805,6.029,13.3003,4.60015,2470.32,2021-8-17T14:02:02Z
2021-08-17T12:03:47Z,42.805,6.029,13.3006,4.60015,2470.287,2021-8-17T14:05:06Z
2021-08-17T12:06:50Z,42.805,6.029,13.2998,4.60014,2470.31,2021-8-17T14:08:09Z
2021-08-17T12:09:53Z,42.805,6.029,13.3003,4.60015,2470.297,2021-8-17T14:11:12Z
2021-08-17T12:12:56Z,42.805,6.029,13.2998,4.60015,2470.297,2021-8-17T14:14:15Z
2021-08-17T12:15:59Z,42.805,6.029,13.3002,4.60015,2470.32,2021-8-17T14:17:18Z
2021-08-17T12:19:03Z,42.805,6.029,13.3001,4.60019,2470.297,2021-8-17T14:20:21Z
2021-08-17T12:22:06Z,42.805,6.029,13.3002,4.60019,2470.31,2021-8-17T14:23:24Z
2021-08-17T12:25:09Z,42.805,6.029,13.2999,4.60016,2470.31,2021-8-17T14:26:27Z
2021-08-17T12:28:12Z,42.805,6.029,13.3004,4.60016,2470.334,2021-8-17T14:29:31Z
2021-08-17T12:31:15Z,42.805,6.029,13.3000,4.60018,2470.334,2021-8-17T14:32:34Z
2021-08-17T12:34:18Z,42.805,6.029,13.3000,4.60016,2470.31,2021-8-17T14:35:37Z
2021-08-17T12:37:21Z,42.805,6.029,13.2998,4.60019,2470.32,2021-8-17T14:38:40Z
2021-08-17T12:40:24Z,42.805,6.029,13.3002,4.60016,2470.31,2021-8-17T14:41:43Z
2021-08-17T12:43:28Z,42.805,6.029,13.3002,4.60015,2470.334,2021-8-17T14:44:46Z
2021-08-17T12:46:31Z,42.805,6.029,13.3004,4.60016,2470.297,2021-8-17T14:47:49Z
2021-08-17T12:49:34Z,42.805,6.029,13.2998,4.60019,2470.32,2021-8-17T14:50:53Z
2021-08-17T12:52:37Z,42.805,6.029,13.3004,4.60019,2470.334,2021-8-17T14:53:56Z
2021-08-17T12:55:40Z,42.805,6.029,13.3005,4.60015,2470.343,2021-8-17T14:56:59Z
2021-08-17T12:58:43Z,42.805,6.029,13.3001,4.60016,2470.357,2021-8-17T15:00:02Z
2021-08-17T13:01:46Z,42.805,6.029,13.3000,4.60016,2470.32,2021-8-17T15:03:05Z
2021-08-17T13:04:49Z,42.805,6.029,13.3003,4.60015,2470.357,2021-8-17T15:06:08Z
2021-08-17T13:07:53Z,42.805,6.029,13.2998,4.60020,2470.334,2021-8-17T15:09:11Z
2021-08-17T13:10:56Z,42.805,6.029,13.3000,4.60017,2470.343,2021-8-17T15:12:14Z
2021-08-17T13:13:59Z,42.805,6.029,13.3004,4.60019,2470.343,2021-8-17T15:15:18Z
2021-08-17T13:17:02Z,42.805,6.029,13.3002,4.60014,2470.343,2021-8-17T15:18:21Z
2021-08-17T13:20:05Z,42.805,6.029,13.3004,4.60015,2470.357,2021-8-17T15:21:24Z
2021-08-17T13:23:08Z,42.805,6.029,13.2997,4.60023,2470.366,2021-8-17T15:24:27Z
2021-08-17T13:26:11Z,42.805,6.029,13.3003,4.60019,2470.366,2021-8-17T15:27:30Z
2021-08-17T13:29:15Z,42.805,6.029,13.3002,4.60015,2470.366,2021-8-17T15:30:33Z
2021-08-17T13:32:18Z,42.805,6.029,13.3000,4.60021,2470.366,2021-8-17T15:33:36Z
2021-08-17T13:35:21Z,42.805,6.029,13.3002,4.60026,2470.357,2021-8-17T15:36:39Z
2021-08-17T13:38:24Z,42.805,6.029,13.2998,4.60029,2470.343,2021-8-17T15:39:43Z
2021-08-17T13:41:27Z,42.805,6.029,13.3004,4.60021,2470.343,2021-8-17T15:42:46Z
2021-08-17T13:44:30Z,42.805,6.029,13.3003,4.60016,2470.38,2021-8-17T15:45:49Z
2021-08-17T13:47:33Z,42.805,6.029,13.2999,4.60018,2470.297,2021-8-17T15:48:52Z
2021-08-17T13:50:36Z,42.805,6.029,13.3004,4.60016,2470.357,2021-8-17T15:51:55Z
2021-08-17T13:53:40Z,42.805,6.029,13.3000,4.60016,2470.38,2021-8-17T15:54:58Z
2021-08-17T13:56:43Z,42.805,6.029,13.3001,4.60016,2470.343,2021-8-17T15:58:01Z
2021-08-17T13:59:46Z,42.805,6.029,13.3000,4.60022,2470.366,2021-8-17T16:01:04Z
2021-08-17T14:02:49Z,42.805,6.029,13.3001,4.60021,2470.404,2021-8-17T16:04:08Z
2021-08-17T14:05:52Z,42.805,6.029,13.3003,4.60019,2470.38,2021-8-17T16:07:11Z
2021-08-17T14:08:55Z,42.805,6.029,13.3003,4.60017,2470.39,2021-8-17T16:10:14Z
2021-08-17T14:11:58Z,42.805,6.029,13.3006,4.60016,2470.366,2021-8-17T16:13:17Z
2021-08-17T14:15:01Z,42.805,6.029,13.3003,4.60017,2470.357,2021-8-17T16:16:20Z
2021-08-17T14:18:05Z,42.805,6.029,13.3006,4.60016,2470.343,2021-8-17T16:19:23Z
2021-08-17T14:21:08Z,42.805,6.029,13.3000,4.60016,2470.366,2021-8-17T16:22:26Z
2021-08-17T14:24:11Z,42.805,6.029,13.3001,4.60016,2470.343,2021-8-17T16:25:29Z
2021-08-17T14:27:14Z,42.805,6.029,13.3001,4.60024,2470.38,2021-8-17T16:28:33Z
2021-08-17T14:30:17Z,42.805,6.029,13.3001,4.60018,2470.366,2021-8-17T16:31:36Z
2021-08-17T14:33:20Z,42.805,6.029,13.3002,4.60026,2470.366,2021-8-17T16:34:39Z
2021-08-17T14:36:23Z,42.805,6.029,13.3003,4.60021,2470.38,2021-8-17T16:37:42Z
2021-08-17T14:39:26Z,42.805,6.029,13.3004,4.60019,2470.366,2021-8-17T16:40:45Z
2021-08-17T14:42:30Z,42.805,6.029,13.3002,4.60028,2470.366,2021-8-17T16:43:48Z
2021-08-17T14:45:33Z,42.805,6.029,13.2998,4.60026,2470.366,2021-8-17T16:46:51Z
2021-08-17T14:48:36Z,42.805,6.029,13.3000,4.60022,2470.39,2021-8-17T16:49:55Z
2021-08-17T14:51:39Z,42.805,6.029,13.3001,4.60021,2470.343,2021-8-17T16:52:58Z
2021-08-17T14:54:42Z,42.805,6.029,13.3002,4.60022,2470.39,2021-8-17T16:56:01Z
2021-08-17T14:57:45Z,42.805,6.029,13.3003,4.60020,2470.39,2021-8-17T16:59:04Z
2021-08-17T15:00:48Z,42.805,6.029,13.3000,4.60020,2470.343,2021-8-17T17:02:07Z
2021-08-17T15:03:51Z,42.805,6.029,13.3000,4.60023,2470.39,2021-8-17T17:05:10Z
2021-08-17T15:06:55Z,42.805,6.029,13.3000,4.60020,2470.366,2021-8-17T17:08:13Z
2021-08-17T15:09:58Z,42.805,6.029,13.3001,4.60019,2470.357,2021-8-17T17:11:16Z
2021-08-17T15:13:01Z,42.805,6.029,13.3004,4.60019,2470.427,2021-8-17T17:14:20Z